Regional Weather Roundup
Issued by NWS

Home | Current Version | Previous Version | Text Only | Print | Product List | Glossary Off
Versions: 1 2 3 4 5 6 7 8 9 10 11 12 13 14 15 16 17 18 19 20 21 22 23 24 25 26 27 28 29 30 31 32 33 34 35 36 37 38 39 40 41 42 43 44 45 46 47 48 49 50

000
ASUS43 KBIS 281520
RWRND

NORTH DAKOTA REGIONAL WEATHER ROUNDUP
NATIONAL WEATHER SERVICE BISMARCK ND
900 AM CST FRI NOV 28 2014

NOTE: "FAIR" INDICATES FEW OR NO CLOUDS BELOW 12,000 FEET WITH NO
SIGNIFICANT WEATHER AND/OR OBSTRUCTIONS TO VISIBILITY.


NDZ001>003-009>011-017-281600-
NORTHWEST NORTH DAKOTA

CITY           SKY/WX    TMP DP  RH WIND       PRES   REMARKS
WILLISTON      CLOUDY    15  11  83 E9        29.66F WCI   3
MINOT          LGT SNOW   8   3  80 E10       29.79F WCI  -6
MINOT AFB      FLURRIES   8   5  87 SE16      29.78F WCI  -9
$$

NDZ018>021-031>035-040>046-281600-
SOUTHWEST NORTH DAKOTA

CITY           SKY/WX    TMP DP  RH WIND       PRES   REMARKS
BISMARCK       PTCLDY    11   8  88 E9        29.78F WCI  -2
DICKINSON      MOCLDY    17  14  88 E10       29.63R WCI   5
GARRISON         N/A     11   8  88 E13       29.76R WCI  -4
HETTINGER ARPT CLOUDY    27  23  85 SE6       29.65S
$$

NDZ004>008-012>016-024-026-027-054-281600-
NORTHEAST NORTH DAKOTA

CITY           SKY/WX    TMP DP  RH WIND       PRES   REMARKS
GRAND FORKS    CLOUDY    13   8  81 E7        29.96S WCI   3
GRND FRKS AFB  FLURRIES  12   9  85 SE9       29.95F WCI   0
DEVILS LAKE    CLOUDY    10   0  61 SE14      29.85F WCI  -5
$$

NDZ022-023-025-028>030-036>039-047>053-281600-
SOUTHEAST NORTH DAKOTA

CITY           SKY/WX    TMP DP  RH WIND       PRES   REMARKS
FARGO          CLOUDY    14   7  73 E9        29.93F WCI   2
JAMESTOWN      CLOUDY     8   3  80 E13       29.85R WCI  -8
$$



USA.gov is the U.S. government's official web portal to all federal, state and local government web resources and services.